Time,TemperatureF,DewpointF,PressureIn,WindDirection,WindDirectionDegrees,WindSpeedMPH,WindSpeedGustMPH,Humidity,HourlyPrecipIn,Conditions,Clouds,dailyrainin,SoftwareType,DateUTC
2013-02-02 00:02:00,27.0,22.0,30.06,WSW,247,9.0,12.0,80,0.00,,,0.00,,2013-02-02 06:02:00,
2013-02-02 00:12:00,27.0,22.0,30.06,WSW,247,9.0,12.0,80,0.00,,,0.00,,2013-02-02 06:12:00,
2013-02-02 00:21:00,26.0,21.0,30.07,West,260,7.0,8.0,81,0.00,,,0.00,,2013-02-02 06:21:00,
2013-02-02 00:31:00,26.0,22.0,30.06,West,268,8.0,9.0,84,0.00,,,0.00,,2013-02-02 06:31:00,
2013-02-02 00:41:00,26.0,22.0,30.06,West,268,8.0,9.0,84,0.00,,,0.00,,2013-02-02 06:41:00,
2013-02-02 00:51:00,26.0,22.0,30.07,West,270,7.0,8.0,84,0.00,,,0.00,,2013-02-02 06:51:00,
2013-02-02 01:02:00,27.0,23.0,30.07,West,271,5.0,7.0,85,0.00,,,0.00,,2013-02-02 07:02:00,
2013-02-02 01:11:00,27.0,23.0,30.07,WNW,289,2.0,5.0,85,0.00,,,0.00,,2013-02-02 07:11:00,
2013-02-02 01:21:00,27.0,23.0,30.07,WNW,289,2.0,5.0,85,0.00,,,0.00,,2013-02-02 07:21:00,
2013-02-02 01:31:00,26.0,23.0,30.08,West,278,5.0,7.0,87,0.00,,,0.00,,2013-02-02 07:31:00,
2013-02-02 01:41:00,26.0,23.0,30.08,West,278,5.0,7.0,87,0.00,,,0.00,,2013-02-02 07:41:00,
2013-02-02 01:52:00,26.0,23.0,30.08,West,279,5.0,6.0,87,0.00,,,0.00,,2013-02-02 07:52:00,
2013-02-02 02:01:00,26.0,23.0,30.09,WNW,300,5.0,7.0,88,0.00,,,0.00,,2013-02-02 08:01:00,
2013-02-02 02:11:00,26.0,23.0,30.09,WNW,300,5.0,7.0,88,0.00,,,0.00,,2013-02-02 08:11:00,
2013-02-02 02:21:00,26.0,23.0,30.08,NNW,334,3.0,6.0,88,0.00,,,0.00,,2013-02-02 08:21:00,
2013-02-02 02:31:00,27.0,23.0,30.09,NNW,345,8.0,9.0,86,0.00,,,0.00,,2013-02-02 08:31:00,
2013-02-02 02:41:00,27.0,23.0,30.09,NNW,345,8.0,9.0,86,0.00,,,0.00,,2013-02-02 08:41:00,
2013-02-02 02:53:00,27.0,23.0,30.10,NNW,336,4.0,6.0,85,0.00,,,0.00,,2013-02-02 08:53:00,
2013-02-02 03:01:00,28.0,24.0,30.11,NNW,336,6.0,8.0,85,0.00,,,0.00,,2013-02-02 09:01:00,
2013-02-02 03:11:00,28.0,24.0,30.11,NNW,336,6.0,8.0,85,0.00,,,0.00,,2013-02-02 09:11:00,
2013-02-02 03:22:00,28.0,24.0,30.12,NNW,331,8.0,11.0,84,0.00,,,0.00,,2013-02-02 09:22:00,
2013-02-02 03:31:00,28.0,24.0,30.12,NNW,335,9.0,12.0,84,0.00,,,0.00,,2013-02-02 09:31:00,
2013-02-02 03:41:00,28.0,24.0,30.12,NNW,335,9.0,12.0,84,0.00,,,0.00,,2013-02-02 09:41:00,
2013-02-02 03:52:00,27.0,23.0,30.12,NNW,332,8.0,9.0,84,0.00,,,0.00,,2013-02-02 09:52:00,
2013-02-02 04:01:00,27.0,23.0,30.12,NNW,332,6.0,8.0,84,0.00,,,0.00,,2013-02-02 10:01:00,
2013-02-02 04:11:00,27.0,23.0,30.12,NNW,331,8.0,11.0,84,0.00,,,0.00,,2013-02-02 10:11:00,
2013-02-02 04:21:00,27.0,23.0,30.12,NNW,331,8.0,11.0,84,0.00,,,0.00,,2013-02-02 10:21:00,
2013-02-02 04:31:00,27.0,23.0,30.13,NNW,342,8.0,9.0,85,0.00,,,0.00,,2013-02-02 10:31:00,
2013-02-02 04:41:00,27.0,23.0,30.13,NNW,342,8.0,9.0,85,0.00,,,0.00,,2013-02-02 10:41:00,
2013-02-02 04:51:00,27.0,23.0,30.13,North,353,7.0,9.0,86,0.00,,,0.00,,2013-02-02 10:51:00,
2013-02-02 05:01:00,27.0,23.0,30.13,North,354,6.0,7.0,84,0.00,,,0.00,,2013-02-02 11:01:00,
2013-02-02 05:11:00,26.0,22.0,30.13,NNW,348,8.0,9.0,85,0.00,,,0.00,,2013-02-02 11:11:00,
2013-02-02 05:21:00,26.0,22.0,30.13,NNW,348,8.0,9.0,85,0.00,,,0.00,,2013-02-02 11:21:00,
2013-02-02 05:32:00,26.0,22.0,30.14,North,350,7.0,8.0,85,0.00,,,0.00,,2013-02-02 11:32:00,
2013-02-02 05:42:00,26.0,22.0,30.14,North,350,7.0,8.0,85,0.00,,,0.00,,2013-02-02 11:42:00,
2013-02-02 05:52:00,26.0,22.0,30.14,NNW,342,10.0,12.0,85,0.00,,,0.00,,2013-02-02 11:52:00,
2013-02-02 06:01:00,26.0,22.0,30.15,NNW,342,9.0,12.0,85,0.00,,,0.00,,2013-02-02 12:01:00,
2013-02-02 06:11:00,26.0,22.0,30.15,NNW,342,9.0,12.0,85,0.00,,,0.00,,2013-02-02 12:11:00,
2013-02-02 06:22:00,26.0,22.0,30.15,North,4,6.0,9.0,85,0.00,,,0.00,,2013-02-02 12:22:00,
2013-02-02 06:32:00,25.0,22.0,30.15,NNW,341,9.0,12.0,89,0.00,,,0.00,,2013-02-02 12:32:00,
2013-02-02 06:42:00,25.0,22.0,30.15,NNW,341,9.0,12.0,89,0.00,,,0.00,,2013-02-02 12:42:00,
2013-02-02 06:52:00,25.0,22.0,30.16,NNW,345,8.0,12.0,90,0.00,,,0.00,,2013-02-02 12:52:00,
2013-02-02 07:02:00,25.0,22.0,30.16,North,0,9.0,12.0,88,0.00,,,0.00,,2013-02-02 13:02:00,
2013-02-02 07:11:00,25.0,22.0,30.16,North,0,9.0,12.0,88,0.00,,,0.00,,2013-02-02 13:11:00,
2013-02-02 07:21:00,25.0,22.0,30.17,North,358,8.0,10.0,88,0.00,,,0.00,,2013-02-02 13:21:00,
2013-02-02 07:32:00,25.0,21.0,30.17,NNW,347,8.0,10.0,86,0.00,,,0.00,,2013-02-02 13:32:00,
2013-02-02 07:42:00,25.0,21.0,30.17,NNW,347,8.0,10.0,86,0.00,,,0.00,,2013-02-02 13:42:00,
2013-02-02 07:51:00,24.0,20.0,30.18,North,356,8.0,9.0,86,0.00,,,0.00,,2013-02-02 13:51:00,
2013-02-02 08:02:00,24.0,20.0,30.18,North,355,9.0,11.0,86,0.00,,,0.00,,2013-02-02 14:02:00,
2013-02-02 08:11:00,24.0,20.0,30.18,North,355,9.0,11.0,86,0.00,,,0.00,,2013-02-02 14:11:00,
2013-02-02 08:22:00,24.0,20.0,30.19,NNE,15,5.0,7.0,86,0.00,,,0.00,,2013-02-02 14:22:00,
2013-02-02 08:32:00,24.0,20.0,30.18,North,0,6.0,8.0,86,0.00,,,0.00,,2013-02-02 14:32:00,
2013-02-02 08:42:00,24.0,20.0,30.18,North,0,6.0,8.0,86,0.00,,,0.00,,2013-02-02 14:42:00,
2013-02-02 08:52:00,24.0,20.0,30.19,NNE,21,7.0,10.0,86,0.00,,,0.00,,2013-02-02 14:52:00,
2013-02-02 09:03:00,24.0,20.0,30.19,NNE,17,5.0,8.0,86,0.00,,,0.00,,2013-02-02 15:03:00,
2013-02-02 09:12:00,24.0,20.0,30.19,NNE,17,5.0,8.0,86,0.00,,,0.00,,2013-02-02 15:12:00,
2013-02-02 09:22:00,24.0,20.0,30.19,NNE,30,6.0,8.0,86,0.00,,,0.00,,2013-02-02 15:22:00,
2013-02-02 09:32:00,24.0,20.0,30.19,North,3,7.0,10.0,85,0.00,,,0.00,,2013-02-02 15:32:00,
2013-02-02 09:42:00,24.0,20.0,30.19,North,3,7.0,10.0,85,0.00,,,0.00,,2013-02-02 15:42:00,
2013-02-02 09:52:00,24.0,20.0,30.20,North,357,5.0,9.0,85,0.00,,,0.00,,2013-02-02 15:52:00,
2013-02-02 10:03:00,25.0,21.0,30.19,NNE,18,4.0,8.0,83,0.00,,,0.00,,2013-02-02 16:03:00,
2013-02-02 10:11:00,25.0,21.0,30.19,NNE,18,4.0,8.0,83,0.00,,,0.00,,2013-02-02 16:11:00,
2013-02-02 10:22:00,25.0,21.0,30.19,North,358,5.0,7.0,83,0.00,,,0.00,,2013-02-02 16:22:00,
2013-02-02 10:32:00,26.0,21.0,30.19,NE,39,4.0,6.0,82,0.00,,,0.00,,2013-02-02 16:32:00,
2013-02-02 10:42:00,26.0,21.0,30.19,NE,39,4.0,6.0,82,0.00,,,0.00,,2013-02-02 16:42:00,
2013-02-02 10:52:00,26.0,21.0,30.19,North,1,5.0,7.0,81,0.00,,,0.00,,2013-02-02 16:52:00,
2013-02-02 11:02:00,26.0,21.0,30.19,NNW,346,2.0,2.0,80,0.00,,,0.00,,2013-02-02 17:02:00,
2013-02-02 11:11:00,26.0,21.0,30.19,NNW,346,2.0,2.0,80,0.00,,,0.00,,2013-02-02 17:11:00,
2013-02-02 11:22:00,26.0,21.0,30.19,NE,39,4.0,4.0,81,0.00,,,0.00,,2013-02-02 17:22:00,
2013-02-02 11:32:00,27.0,21.0,30.19,NNE,22,2.0,2.0,79,0.00,,,0.00,,2013-02-02 17:32:00,
2013-02-02 11:41:00,27.0,21.0,30.19,NNE,22,2.0,2.0,79,0.00,,,0.00,,2013-02-02 17:41:00,
2013-02-02 11:52:00,27.0,21.0,30.20,NNE,29,1.0,2.0,79,0.00,,,0.00,,2013-02-02 17:52:00,
2013-02-02 12:02:00,27.0,21.0,30.19,SSE,147,0.0,0.0,79,0.00,,,0.00,,2013-02-02 18:02:00,
2013-02-02 12:12:00,27.0,21.0,30.19,SSE,147,0.0,0.0,79,0.00,,,0.00,,2013-02-02 18:12:00,
2013-02-02 12:22:00,27.0,21.0,30.19,SSW,198,2.0,3.0,79,0.00,,,0.00,,2013-02-02 18:22:00,
2013-02-02 12:32:00,27.0,21.0,30.18,SW,227,2.0,5.0,79,0.00,,,0.00,,2013-02-02 18:32:00,
2013-02-02 12:42:00,27.0,21.0,30.18,SW,227,2.0,5.0,79,0.00,,,0.00,,2013-02-02 18:42:00,
2013-02-02 12:52:00,28.0,22.0,30.17,South,176,0.0,0.0,78,0.00,,,0.00,,2013-02-02 18:52:00,
2013-02-02 13:02:00,28.0,22.0,30.15,South,181,4.0,5.0,79,0.00,,,0.00,,2013-02-02 19:02:00,
2013-02-02 13:12:00,28.0,22.0,30.15,WSW,250,6.0,11.0,78,0.00,,,0.00,,2013-02-02 19:12:00,
2013-02-02 13:21:00,28.0,22.0,30.15,WSW,250,6.0,11.0,78,0.00,,,0.00,,2013-02-02 19:21:00,
2013-02-02 13:32:00,29.0,23.0,30.13,WSW,244,7.0,8.0,79,0.00,,,0.00,,2013-02-02 19:32:00,
2013-02-02 13:42:00,29.0,23.0,30.13,WSW,244,7.0,8.0,79,0.00,,,0.00,,2013-02-02 19:42:00,
2013-02-02 13:51:00,30.0,24.0,30.14,SSW,207,7.0,8.0,79,0.00,,,0.00,,2013-02-02 19:51:00,
2013-02-02 14:01:00,30.0,24.0,30.14,SW,227,9.0,10.0,78,0.00,,,0.00,,2013-02-02 20:01:00,
2013-02-02 14:11:00,30.0,24.0,30.14,SW,227,9.0,10.0,78,0.00,,,0.00,,2013-02-02 20:11:00,
2013-02-02 14:21:00,30.0,25.0,30.14,SW,226,8.0,9.0,80,0.00,,,0.00,,2013-02-02 20:21:00,
2013-02-02 14:32:00,30.0,25.0,30.13,SW,222,9.0,14.0,82,0.00,,,0.00,,2013-02-02 20:32:00,
2013-02-02 14:41:00,30.0,25.0,30.13,SW,222,9.0,14.0,82,0.00,,,0.00,,2013-02-02 20:41:00,
2013-02-02 14:52:00,30.0,25.0,30.12,SSW,209,9.0,11.0,82,0.00,,,0.00,,2013-02-02 20:52:00,
2013-02-02 15:02:00,31.0,26.0,30.10,SSW,203,8.0,12.0,82,0.00,,,0.00,,2013-02-02 21:02:00,
2013-02-02 15:11:00,31.0,26.0,30.10,SSW,203,8.0,12.0,82,0.00,,,0.00,,2013-02-02 21:11:00,
2013-02-02 15:21:00,32.0,27.0,30.10,SSW,204,8.0,11.0,80,0.00,,,0.00,,2013-02-02 21:21:00,
2013-02-02 15:32:00,32.0,27.0,30.09,SSW,197,7.0,9.0,80,0.00,,,0.00,,2013-02-02 21:32:00,
2013-02-02 15:42:00,32.0,27.0,30.09,SSW,197,7.0,9.0,80,0.00,,,0.00,,2013-02-02 21:42:00,
2013-02-02 15:51:00,32.0,27.0,30.08,SSW,206,7.0,10.0,80,0.00,,,0.00,,2013-02-02 21:51:00,
2013-02-02 16:02:00,34.0,28.0,30.06,SSW,202,6.0,9.0,79,0.00,,,0.00,,2013-02-02 22:02:00,
2013-02-02 16:11:00,34.0,28.0,30.06,SSW,202,6.0,9.0,79,0.00,,,0.00,,2013-02-02 22:11:00,
2013-02-02 16:21:00,35.0,29.0,30.06,SW,214,7.0,9.0,78,0.00,,,0.00,,2013-02-02 22:21:00,
2013-02-02 16:32:00,34.0,28.0,30.05,SSW,198,8.0,12.0,80,0.00,,,0.00,,2013-02-02 22:32:00,
2013-02-02 16:42:00,34.0,28.0,30.05,SSW,198,8.0,12.0,80,0.00,,,0.00,,2013-02-02 22:42:00,
2013-02-02 16:52:00,34.0,29.0,30.05,SSW,204,9.0,11.0,81,0.00,,,0.00,,2013-02-02 22:52:00,
2013-02-02 17:02:00,33.0,28.0,30.05,SSW,198,11.0,14.0,82,0.00,,,0.00,,2013-02-02 23:02:00,
2013-02-02 17:11:00,33.0,28.0,30.05,SSW,198,11.0,14.0,82,0.00,,,0.00,,2013-02-02 23:11:00,
2013-02-02 17:21:00,33.0,28.0,30.04,SSW,204,7.0,9.0,82,0.00,,,0.00,,2013-02-02 23:21:00,
2013-02-02 17:32:00,34.0,29.0,30.05,South,179,5.0,7.0,83,0.00,,,0.00,,2013-02-02 23:32:00,
2013-02-02 17:42:00,34.0,29.0,30.05,South,179,5.0,7.0,83,0.00,,,0.00,,2013-02-02 23:42:00,
2013-02-02 17:52:00,33.0,28.0,30.05,SW,220,5.0,7.0,83,0.00,,,0.00,,2013-02-02 23:52:00,
2013-02-02 18:02:00,33.0,28.0,30.04,SSW,208,7.0,11.0,83,0.00,,,0.00,,2013-02-03 00:02:00,
2013-02-02 18:11:00,33.0,28.0,30.04,SSW,208,7.0,11.0,83,0.00,,,0.00,,2013-02-03 00:11:00,
2013-02-02 18:21:00,33.0,29.0,30.04,SW,215,3.0,6.0,84,0.00,,,0.00,,2013-02-03 00:21:00,
2013-02-02 18:32:00,33.0,29.0,30.05,NE,41,3.0,4.0,85,0.00,,,0.00,,2013-02-03 00:32:00,
2013-02-02 18:41:00,33.0,29.0,30.05,NE,41,3.0,4.0,85,0.00,,,0.00,,2013-02-03 00:41:00,
2013-02-02 18:51:00,33.0,29.0,30.07,NNE,13,2.0,3.0,85,0.00,,,0.00,,2013-02-03 00:51:00,
2013-02-02 19:02:00,33.0,29.0,30.06,SW,233,3.0,4.0,86,0.00,,,0.00,,2013-02-03 01:02:00,
2013-02-02 19:11:00,33.0,29.0,30.07,SW,229,5.0,7.0,86,0.00,,,0.00,,2013-02-03 01:11:00,
2013-02-02 19:21:00,33.0,29.0,30.07,SW,229,5.0,7.0,86,0.00,,,0.00,,2013-02-03 01:21:00,
2013-02-02 19:32:00,33.0,30.0,30.07,West,261,5.0,6.0,88,0.00,,,0.00,,2013-02-03 01:32:00,
2013-02-02 19:42:00,33.0,30.0,30.07,West,261,5.0,6.0,88,0.00,,,0.00,,2013-02-03 01:42:00,
2013-02-02 19:52:00,33.0,30.0,30.08,West,275,4.0,5.0,88,0.00,,,0.00,,2013-02-03 01:52:00,
2013-02-02 20:01:00,33.0,30.0,30.08,NNW,340,4.0,5.0,88,0.00,,,0.00,,2013-02-03 02:01:00,
2013-02-02 20:11:00,33.0,30.0,30.08,NNW,340,4.0,5.0,88,0.00,,,0.00,,2013-02-03 02:11:00,
2013-02-02 20:21:00,33.0,30.0,30.07,WNW,293,3.0,5.0,88,0.00,,,0.00,,2013-02-03 02:21:00,
2013-02-02 20:32:00,36.0,31.0,30.08,NW,311,9.0,11.0,82,0.00,,,0.00,,2013-02-03 02:32:00,
2013-02-02 20:41:00,36.0,31.0,30.08,NW,311,9.0,11.0,82,0.00,,,0.00,,2013-02-03 02:41:00,
2013-02-02 20:52:00,38.0,32.0,30.08,NW,321,12.0,17.0,78,0.00,,,0.00,,2013-02-03 02:52:00,
2013-02-02 21:02:00,39.0,31.0,30.08,NW,315,14.0,18.0,74,0.00,,,0.00,,2013-02-03 03:02:00,
2013-02-02 21:11:00,39.0,31.0,30.07,NW,316,12.0,25.0,72,0.00,,,0.00,,2013-02-03 03:11:00,
2013-02-02 21:21:00,39.0,31.0,30.07,NW,316,12.0,25.0,72,0.00,,,0.00,,2013-02-03 03:21:00,
2013-02-02 21:31:00,38.0,31.0,30.07,NW,307,11.0,18.0,75,0.00,,,0.00,,2013-02-03 03:31:00,
2013-02-02 21:41:00,38.0,31.0,30.07,NW,307,11.0,18.0,75,0.00,,,0.00,,2013-02-03 03:41:00,
2013-02-02 21:51:00,38.0,31.0,30.07,WNW,303,12.0,17.0,75,0.00,,,0.00,,2013-02-03 03:51:00,
2013-02-02 22:01:00,37.0,30.0,30.07,WNW,300,10.0,15.0,76,0.00,,,0.00,,2013-02-03 04:01:00,
2013-02-02 22:11:00,37.0,30.0,30.08,WNW,297,10.0,13.0,77,0.00,,,0.00,,2013-02-03 04:11:00,
2013-02-02 22:21:00,37.0,30.0,30.08,WNW,297,10.0,13.0,77,0.00,,,0.00,,2013-02-03 04:21:00,
2013-02-02 22:31:00,37.0,30.0,30.08,NW,308,10.0,14.0,75,0.00,,,0.00,,2013-02-03 04:31:00,
2013-02-02 22:42:00,37.0,30.0,30.08,NW,308,10.0,14.0,75,0.00,,,0.00,,2013-02-03 04:42:00,
2013-02-02 22:51:00,37.0,30.0,30.09,WNW,294,11.0,15.0,77,0.00,,,0.00,,2013-02-03 04:51:00,
2013-02-02 23:03:00,37.0,30.0,30.08,WNW,299,10.0,14.0,77,0.00,,,0.00,,2013-02-03 05:03:00,
2013-02-02 23:11:00,37.0,30.0,30.08,WNW,299,10.0,14.0,77,0.00,,,0.00,,2013-02-03 05:11:00,
2013-02-02 23:22:00,37.0,30.0,30.09,NW,307,10.0,13.0,77,0.00,,,0.00,,2013-02-03 05:22:00,
2013-02-02 23:32:00,36.0,30.0,30.11,NW,320,8.0,11.0,78,0.00,,,0.00,,2013-02-03 05:32:00,
2013-02-02 23:41:00,36.0,30.0,30.11,NW,320,8.0,11.0,78,0.00,,,0.00,,2013-02-03 05:41:00,
2013-02-02 23:52:00,36.0,30.0,30.11,NNW,330,11.0,19.0,79,0.00,,,0.00,,2013-02-03 05:52:00,